MORELOS 3

Last updated on Tue Sep 16 2025 00:02:48 GMT+0000 (Coordinated Universal Time)

1 40946U 15056A 25258.48239125 -.00000057 00000+0 00000+0 0 9997 2 40946 3.0181 6.8168 0003346 179.1254 229.2669 1.00271546 36531
UTC large
Height (km)
Speed (km/s)
/
Latitude / Longitude
Inclination (degrees)
Orbital Period (minutes)
Azimuth
Elevation
Range (km)
Doppler Factor

Next 0 passes for location: London (51.5072 / 0.1276)

Sorry there are no passes over London.